Theta_e
287 287 287 287 286 286 286 286 286 286 286 286 286 286 286 286 286 286 286 286 286 286 286 286 286 287 287 287 287 287 287 288 288 288 288 288 289 289 289 289 289 289 289 289 289 289 289 289 289 289 289 290 290 290 290 290 290 291 291 291 291 291 292 292 292 292 292 293 293 293 293 293 293 293 293 293 294 294 294 294 294 294 294 294 294 294
287 287 287 286 286 286 286 286 286 286 286 286 286 286 286 286 286 286 286 286 286 286 286 286 287 287 287 287 287 287 287 288 288 288 288 288 288 288 288 288 288 288 288 288 288 288 288 289 289 289 289 289 290 290 290 290 290 291 291 291 291 291 291 292 292 292 292 292 292 292 292 293 293 293 293 293 293 293 293 293 294 294 294 294 294 294
287 287 286 286 286 286 286 286 286 286 286 286 285 285 286 286 286 286 286 286 286 286 287 287 287 287 287 287 287 287 287 287 287 287 288 288 288 288 288 288 288 288 288 288 288 288 288 288 289 289 289 289 290 290 290 290 290 290 291 291 291 291 291 291 291 292 292 292 292 292 292 292 292 292 292 292 293 293 293 293 293 293 294 294 294 294
286 286 286 286 286 286 286 285 285 285 285 285 285 285 286 286 286 286 286 286 287 287 287 287 287 287 287 287 287 287 287 287 287 287 287 287 287 287 287 287 287 287 287 287 288 288 288 288 289 289 289 289 289 290 290 290 290 290 290 291 291 291 291 291 291 291 291 291 292 292 292 292 292 292 292 292 292 292 293 293 293 293 293 293 294 294
286 286 286 286 286 285 285 285 285 285 285 285 285 286 286 286 286 286 287 287 287 287 287 287 287 287 287 287 286 286 286 286 286 286 287 287 287 287 287 287 287 287 287 287 287 288 288 288 288 289 289 289 289 290 290 290 290 290 290 290 290 291 291 291 291 291 291 291 291 291 291 291 291 291 291 291 291 291 292 292 292 292 292 293 293 293
286 286 285 285 285 285 285 285 285 285 285 285 286 286 286 286 287 287 287 287 287 287 287 287 287 286 286 286 286 285 286 286 286 286 286 286 286 286 286 286 286 287 287 287 287 288 288 288 288 289 289 289 289 289 289 290 290 290 290 290 290 290 290 290 290 290 290 290 290 290 290 290 290 290 290 290 290 291 291 291 291 291 291 292 292 292
285 285 285 285 285 285 285 285 285 285 285 286 286 286 287 287 287 288 288 288 287 287 287 286 286 286 285 285 285 285 285 285 285 285 285 285 285 285 286 286 286 286 287 287 287 288 288 288 288 288 289 289 289 289 289 289 289 289 289 289 289 289 289 289 289 289 289 289 289 289 289 290 290 290 290 290 290 290 290 290 291 291 291 291 291 292
285 285 285 285 285 285 285 285 285 286 286 286 286 287 287 288 288 288 287 287 286 286 286 285 285 285 285 285 285 285 285 285 285 285 285 285 285 285 285 286 286 286 287 287 287 287 288 288 288 288 288 288 288 288 288 288 289 289 289 289 289 289 289 289 289 289 289 289 289 289 289 289 289 289 289 289 289 290 290 290 290 290 290 291 291 291
285 285 285 285 285 285 285 285 286 286 286 287 287 287 288 288 287 287 286 286 285 285 285 285 285 285 285 285 285 285 284 284 284 284 285 285 285 285 285 286 286 286 287 287 287 287 287 287 287 287 287 288 288 288 288 288 288 288 288 288 288 288 288 288 288 288 288 289 289 289 289 289 289 289 289 289 289 289 289 289 289 290 290 290 290 291
285 285 285 285 285 285 285 286 286 286 287 287 287 288 288 287 286 286 285 285 285 285 285 285 285 285 285 284 284 284 284 284 284 284 285 285 285 285 286 286 286 286 286 286 286 287 287 287 287 287 287 287 287 287 287 287 287 287 287 287 287 287 287 288 288 288 288 288 288 288 288 289 289 289 289 289 289 289 289 289 289 289 289 290 290 290
285 285 285 285 285 286 286 286 286 287 287 287 287 287 286 286 285 285 285 285 285 285 285 284 284 284 284 284 284 284 284 284 284 284 284 285 285 285 286 286 286 286 286 286 286 286 286 286 286 286 286 286 286 287 287 287 287 287 287 287 287 287 287 287 287 288 288 288 288 288 288 289 289 289 289 289 289 289 289 289 289 289 289 290 290 290
285 285 285 286 286 286 286 286 287 287 288 287 287 286 285 285 285 285 285 285 285 284 284 284 284 284 284 284 284 284 284 284 284 284 285 285 285 285 285 285 285 285 285 285 285 285 285 285 285 286 286 286 286 286 286 286 286 286 286 286 286 287 287 287 287 288 288 288 288 288 289 289 289 289 289 289 289 289 289 289 289 289 290 290 290 290
286 286 286 286 286 286 287 287 287 287 287 286 286 285 285 285 285 285 285 284 284 284 284 284 284 284 284 284 284 284 284 284 285 285 285 285 285 285 285 285 285 284 284 284 284 284 285 285 285 285 285 285 285 285 286 286 286 286 286 286 286 286 287 287 287 288 288 288 288 289 289 289 289 289 289 289 289 289 289 289 289 289 290 290 290 290
286 286 286 287 287 287 288 287 287 286 286 285 285 285 285 285 285 284 284 284 284 284 284 284 284 284 284 284 284 284 285 285 285 285 285 285 285 285 285 284 284 284 284 284 284 284 284 284 284 285 285 285 285 285 285 285 285 285 286 286 286 287 287 287 288 288 288 288 288 288 289 289 289 289 289 289 289 289 290 289 289 289 289 290 290 290
287 287 287 288 288 288 288 287 286 286 285 285 285 285 285 284 284 284 284 284 284 284 284 284 284 284 284 284 285 285 285 285 285 285 285 285 285 285 284 284 284 284 284 284 284 284 284 284 284 284 284 284 284 284 285 285 285 286 286 286 287 287 287 287 287 288 288 288 288 288 289 289 289 289 289 289 289 289 289 290 290 289 289 290 290 290
288 288 288 288 288 287 287 286 286 285 285 285 285 285 285 284 284 284 284 284 284 284 284 284 284 284 285 285 285 285 285 285 285 285 285 285 284 284 284 284 284 284 284 284 284 284 284 284 284 284 284 284 284 285 285 285 285 286 286 286 287 287 287 287 287 288 288 288 288 288 288 289 289 289 289 289 289 289 289 289 290 290 289 289 290 290
288 288 288 287 287 287 286 286 285 285 285 285 285 284 284 284 284 284 284 284 284 284 284 284 285 285 285 285 285 285 285 285 285 285 284 284 284 284 284 284 284 284 284 284 284 284 284 284 284 284 284 284 284 285 285 285 285 286 286 286 286 287 287 287 287 287 288 288 288 288 288 288 289 289 289 289 289 289 289 289 290 290 289 290 290 290
288 288 287 287 286 286 285 285 285 285 285 285 285 284 284 284 284 284 284 284 284 284 284 284 285 285 285 285 286 286 285 285 284 284 284 284 284 284 284 284 284 284 284 284 284 284 284 284 284 284 284 284 284 285 285 285 285 286 286 286 286 286 287 287 287 287 287 287 288 288 288 288 289 289 289 289 289 289 289 289 290 290 290 290 290 290
287 287 286 286 286 285 285 285 285 285 285 284 284 284 284 284 284 284 284 284 284 284 284 285 285 285 285 286 286 285 285 284 284 284 284 284 284 284 284 284 284 284 284 284 284 284 284 284 284 284 284 284 284 285 285 285 285 286 286 286 286 286 287 287 287 287 287 287 288 288 288 288 289 289 289 289 289 289 289 289 290 290 290 290 290 290
286 286 286 285 285 285 285 285 285 284 284 284 284 284 284 284 284 284 284 284 284 284 285 285 285 286 286 285 285 284 284 284 283 283 283 283 283 283 283 284 284 284 284 284 284 284 284 284 284 284 284 284 284 284 285 285 285 286 286 286 286 286 286 286 287 287 287 287 288 288 288 288 288 289 289 289 289 289 289 289 289 290 290 290 290 290
285 285 285 285 284 284 284 284 284 284 284 284 284 284 284 284 284 284 284 285 285 285 285 286 286 285 285 284 284 284 283 283 283 283 283 283 283 283 283 284 284 284 284 284 284 284 284 284 284 284 284 284 284 284 285 285 285 285 285 286 286 286 286 286 287 287 287 287 287 288 288 288 288 289 289 289 289 289 289 290 290 290 290 290 290 290
284 284 284 284 284 284 284 284 284 284 284 284 284 284 284 284 284 284 284 285 285 285 285 285 284 284 284 283 283 283 283 283 283 283 283 283 283 283 283 283 283 284 284 284 284 284 284 284 284 284 284 284 284 284 285 285 285 285 285 285 286 286 286 286 286 287 287 287 287 288 288 288 288 289 289 289 289 289 289 290 290 290 290 290 290 290
284 284 284 284 284 284 284 284 284 284 284 284 284 284 284 284 284 285 285 285 285 285 284 284 284 283 283 283 283 283 283 283 283 283 283 283 283 283 283 283 283 283 283 283 283 283 283 284 284 284 284 284 284 284 284 285 285 285 285 285 285 286 286 286 286 287 287 287 287 288 288 288 288 288 288 289 289 289 289 289 289 290 290 290 290 290
284 284 284 284 284 284 284 284 285 285 285 285 285 285 286 286 286 286 286 285 284 284 283 283 283 283 283 283 282 282 282 282 282 282 283 283 283 283 283 283 283 283 283 283 283 283 283 283 284 284 284 284 284 284 284 284 285 285 285 285 285 286 286 286 286 287 287 287 287 287 287 288 288 288 288 288 288 289 289 289 289 289 290 290 290 290
284 284 284 285 285 285 285 285 285 286 286 287 287 287 286 286 285 284 284 283 283 283 283 283 283 283 282 282 282 282 282 282 282 282 282 282 283 283 283 283 283 283 283 283 283 283 283 284 284 283 283 283 283 284 284 284 284 284 285 285 285 285 286 286 286 286 287 287 287 287 287 287 287 288 288 288 288 289 289 289 289 289 290 290 290 290
284 284 285 285 285 285 285 286 286 287 287 287 286 285 285 284 284 284 283 283 283 283 283 283 283 282 282 282 282 282 282 282 282 282 282 282 282 282 282 283 283 283 283 283 283 283 283 284 283 283 283 283 283 283 284 284 284 284 284 285 285 285 286 286 286 286 286 286 286 286 287 287 287 288 288 288 288 289 289 289 289 290 290 290 290 290
284 284 284 285 285 285 286 286 286 286 285 285 284 284 284 284 283 283 283 283 283 283 283 283 282 282 282 282 282 282 282 282 282 282 282 282 282 282 282 282 283 283 283 283 283 283 283 283 283 283 283 283 283 283 283 283 284 284 285 285 285 285 285 285 285 285 286 286 286 286 287 287 287 287 288 288 288 289 289 289 289 290 290 290 290 290
284 284 284 285 285 285 285 285 284 284 283 283 283 283 283 283 283 283 283 283 283 282 282 282 282 282 282 282 282 282 281 282 282 282 282 282 282 282 282 282 283 283 283 283 283 283 283 283 283 283 283 283 283 283 283 283 284 284 284 284 284 285 285 285 285 285 285 286 286 286 286 287 287 287 288 288 288 289 289 289 289 289 289 290 290 290
284 284 285 285 284 284 283 283 282 282 282 282 282 283 283 283 283 283 283 282 282 282 282 282 282 282 282 282 282 282 282 282 282 282 282 282 282 282 282 282 283 283 283 283 283 283 283 283 283 283 283 283 283 283 283 283 283 283 284 284 284 284 284 284 285 285 285 285 286 286 286 287 287 287 287 288 288 288 288 289 289 289 289 289 289 289
284 284 283 283 283 282 282 282 281 281 282 282 282 282 282 282 282 282 282 282 282 282 282 282 282 282 282 282 282 282 282 282 282 282 282 282 282 282 282 282 282 282 282 283 283 283 283 283 283 283 283 283 283 283 283 283 283 283 283 283 284 284 284 284 284 285 285 285 285 286 286 286 287 287 287 287 287 288 288 288 288 288 289 289 289 289
283 283 282 282 282 281 281 281 281 281 281 281 282 282 282 282 282 282 282 282 282 282 282 282 282 282 282 282 282 282 282 282 282 282 282 282 282 282 282 282 282 282 282 283 283 283 283 283 283 283 283 283 283 283 283 283 283 283 283 283 283 283 284 284 284 284 285 285 285 285 286 286 286 286 286 287 287 287 287 288 288 288 288 288 289 289
282 282 281 281 281 281 281 281 281 281 281 281 281 281 281 281 282 282 282 282 282 282 282 282 282 282 282 282 282 282 282 282 282 282 282 282 282 282 282 282 282 282 282 282 283 283 283 283 283 283 283 283 283 283 283 283 283 283 283 283 284 284 284 284 284 284 284 284 285 285 285 285 285 286 286 286 286 287 287 287 287 288 288 288 288 288
281 281 281 281 281 281 281 281 281 281 281 281 281 281 281 281 281 281 281 281 281 281 281 281 281 281 282 282 282 282 282 281 281 282 282 282 282 282 282 282 282 282 282 282 282 282 283 283 283 283 283 283 283 283 283 283 283 283 284 284 284 284 284 284 284 284 284 284 284 284 284 285 285 285 285 285 286 286 286 287 287 287 288 288 288 288
281 281 281 281 281 281 281 281 281 281 281 281 281 281 281 281 281 281 281 281 281 281 281 281 281 281 281 281 281 281 281 281 281 282 282 282 282 282 282 282 282 282 282 282 282 283 283 283 283 283 283 283 283 283 283 283 283 284 284 284 284 284 284 284 284 284 284 284 284 284 284 284 284 284 285 285 285 286 286 286 287 287 288 288 288 288
281 281 281 281 281 281 281 281 281 281 281 281 281 281 281 281 281 281 281 281 281 281 281 281 281 281 281 281 281 281 281 281 281 281 282 282 282 282 282 282 282 282 282 282 282 283 283 283 283 283 283 283 283 283 283 283 283 284 284 284 284 284 284 284 284 284 284 284 284 284 284 284 284 284 284 285 285 285 286 286 287 287 287 288 288 288
281 281 281 281 281 281 281 281 281 281 281 281 281 281 281 281 281 281 281 281 280 281 281 281 281 281 281 281 281 281 281 281 281 281 282 282 282 282 282 282 282 282 282 282 283 283 283 283 283 283 283 283 283 283 283 283 284 284 284 284 284 284 284 284 284 284 284 284 284 284 284 284 284 284 284 285 285 285 286 286 286 287 287 287 288 288
281 281 281 281 281 281 281 281 281 281 281 281 281 281 281 281 281 280 280 280 280 280 280 281 281 281 281 281 281 281 281 281 282 282 282 282 282 282 282 282 282 282 283 283 283 283 283 283 283 283 283 283 283 283 283 284 284 284 284 284 284 284 284 284 284 284 284 284 284 284 284 284 285 285 285 285 285 285 285 286 286 286 287 287 287 288
281 281 281 281 281 281 281 281 281 281 281 281 281 281 281 280 280 280 280 280 280 280 280 281 281 281 281 281 281 281 281 282 282 282 282 282 282 282 282 282 283 283 283 283 283 283 283 283 283 283 283 283 283 284 284 284 284 284 284 284 284 284 284 284 284 284 284 285 285 285 285 285 285 284 284 284 285 285 285 285 286 286 286 287 287 287
281 281 281 281 281 281 281 281 281 281 281 281 280 280 280 280 280 280 280 280 280 280 281 281 281 281 281 281 281 281 282 282 282 282 282 282 282 282 282 282 283 283 283 283 283 283 283 283 283 283 283 283 284 284 284 284 284 284 284 284 284 284 284 284 285 285 285 285 285 285 284 284 284 284 284 284 285 285 285 285 286 286 286 286 287 287
281 281 281 281 281 281 280 280 280 280 280 280 280 280 280 280 280 280 280 280 280 280 281 281 281 281 281 281 281 281 281 281 282 282 282 282 282 282 282 282 282 283 283 283 283 283 283 283 283 283 283 284 284 284 284 284 284 284 284 284 284 285 285 285 285 285 285 285 284 284 284 284 284 284 284 285 285 285 285 286 286 286 286 286 286 287
281 281 281 281 280 280 280 280 280 280 280 280 280 280 280 280 280 280 280 280 280 280 281 281 281 281 281 281 281 281 281 281 281 281 282 282 282 282 282 282 282 282 283 283 283 283 283 283 283 283 284 284 284 284 284 284 284 284 284 285 285 285 285 285 285 285 285 285 284 284 284 284 285 285 285 285 285 285 285 286 286 286 286 286 287 287
281 281 280 280 280 280 280 280 280 280 280 280 280 280 280 280 280 280 280 280 280 280 281 281 281 281 281 281 281 281 281 281 281 282 282 282 282 282 282 282 282 282 282 283 283 283 283 283 284 284 284 284 284 284 284 284 284 284 284 285 285 285 285 285 285 285 285 285 285 285 284 285 285 285 285 285 285 285 285 286 286 286 286 287 287 287
281 280 280 280 280 280 280 280 280 280 280 280 280 280 280 280 280 280 280 280 280 281 281 281 281 281 281 281 281 281 281 281 282 282 282 282 282 282 282 282 282 282 282 283 283 283 283 284 284 284 284 284 284 284 284 284 284 284 284 285 285 285 285 285 285 285 285 285 285 285 285 285 285 285 285 285 285 285 286 286 286 286 287 287 287 287
280 280 280 280 280 280 280 280 280 280 280 280 280 280 280 280 280 280 280 280 280 281 281 281 281 281 281 281 281 281 281 281 282 282 282 282 282 282 282 282 282 283 283 283 283 283 283 284 284 284 284 284 284 284 284 284 284 284 285 285 285 285 285 285 285 285 285 285 285 285 285 285 285 285 285 285 285 286 286 286 286 286 287 287 287 287
280 280 280 280 280 280 280 280 280 280 279 279 279 280 280 280 280 280 280 280 280 280 281 281 281 281 281 281 281 281 281 282 282 282 282 282 282 282 282 282 283 283 283 283 283 283 284 284 284 284 284 284 284 284 284 285 285 285 285 285 285 285 285 285 285 285 285 285 285 285 285 285 285 285 285 286 286 286 286 286 286 286 286 286 286 286
280 280 280 280 280 279 279 279 279 279 279 279 279 280 280 280 280 280 280 280 280 280 281 281 281 281 281 281 281 281 281 282 282 282 282 282 282 282 282 282 283 283 283 283 283 283 284 284 284 284 284 284 284 284 284 285 285 285 285 285 285 285 285 285 285 285 285 285 285 285 285 285 286 286 286 286 286 286 286 286 286 286 286 286 286 286
280 280 280 279 279 279 279 279 279 279 279 279 279 279 280 280 280 280 280 280 280 280 281 281 281 281 281 281 281 281 281 281 282 282 282 282 282 282 283 283 283 283 283 283 283 284 284 284 284 284 284 284 284 284 284 285 285 285 285 285 285 285 285 285 285 285 285 285 285 285 285 286 285 286 286 286 286 286 286 286 286 286 286 286 286 286
280 279 279 279 279 279 279 279 279 279 279 279 279 279 280 280 280 280 280 280 280 280 281 281 281 281 281 281 281 281 281 282 282 282 282 282 282 283 283 283 283 283 283 283 283 284 284 284 284 284 284 284 284 284 285 285 285 285 285 285 285 285 285 285 285 285 285 285 285 285 285 285 285 285 285 285 285 285 285 285 285 286 286 286 286 286
279 279 279 279 279 279 279 279 279 279 279 279 279 279 280 280 280 280 280 280 280 280 280 280 281 281 281 281 281 281 281 282 282 282 282 282 283 283 283 283 283 283 283 283 284 284 284 284 284 284 284 284 284 285 285 285 285 285 285 285 285 285 285 285 285 286 285 285 285 285 285 285 285 285 285 285 285 285 285 285 285 285 286 286 286 287
279 279 279 279 279 279 279 279 279 279 279 279 279 279 280 280 280 280 280 280 280 280 280 281 281 281 281 281 281 281 282 282 282 282 282 283 283 283 283 283 283 283 283 284 284 284 284 284 284 285 285 285 285 285 285 285 286 286 286 286 286 286 286 286 285 285 285 285 285 285 285 285 285 285 285 285 285 285 285 285 285 286 286 286 287 287
279 279 279 279 279 279 279 279 279 279 279 279 279 280 280 280 280 280 280 280 280 280 281 281 281 281 281 281 281 282 282 282 282 282 282 283 283 283 283 283 283 283 283 284 284 284 284 285 285 285 285 286 286 286 286 286 286 286 286 286 286 285 285 285 285 285 285 285 285 285 285 284 284 284 284 284 285 285 285 285 286 286 286 287 287 287
Wind_Speed
20 21 21 22 22 23 22 22 23 24 25 25 25 25 25 25 26 26 27 27 28 28 28 27 27 28 28 29 29 30 31 31 32 32 32 32 32 32 31 31 31 31 31 31 32 33 33 33 33 33 33 33 33 33 33 33 32 32 32 32 32 32 32 32 32 32 32 32 32 32 32 32 32 32 32 32 32 32 32 32 32 32 32 32 33 33
21 21 21 21 21 22 23 22 22 23 25 26 26 26 26 27 27 27 27 27 26 26 26 26 27 28 29 30 30 30 30 31 31 31 31 31 31 31 31 31 31 31 32 32 33 33 34 34 33 33 33 33 33 33 33 33 33 33 33 33 33 33 33 33 33 32 32 32 32 32 32 32 32 32 32 32 32 32 32 32 32 32 33 33 33 33
21 21 21 21 21 22 23 23 23 23 25 26 26 27 27 28 28 27 26 26 25 25 25 26 27 29 29 30 30 29 29 29 29 30 30 30 30 30 31 31 31 32 33 33 33 34 33 33 33 33 33 33 33 33 33 33 33 33 33 33 33 33 33 33 33 33 32 32 32 32 32 32 32 32 32 32 32 32 32 32 32 32 32 33 33 33
21 21 22 22 22 22 22 23 24 25 25 26 26 27 28 28 27 26 26 25 25 26 26 27 28 28 29 29 28 28 28 28 29 29 30 30 30 31 31 31 32 33 33 33 33 33 33 33 33 33 33 33 33 33 33 33 33 33 33 33 33 33 33 33 33 33 32 32 32 32 32 32 32 31 31 31 31 31 31 31 31 31 32 32 32 32
21 21 22 22 22 22 23 23 24 25 25 26 26 27 27 26 26 25 25 25 25 26 26 27 27 27 27 27 27 27 27 28 29 29 30 30 31 31 31 32 32 33 33 33 33 33 33 33 33 33 33 33 33 33 33 33 33 33 33 33 33 33 32 32 32 32 32 32 32 32 32 32 31 31 31 31 31 31 31 31 31 31 31 32 32 33
22 22 22 22 22 23 23 24 24 25 25 25 25 25 25 25 24 24 24 24 24 25 26 26 26 26 26 26 26 27 27 28 29 29 30 30 31 31 32 32 32 32 32 33 33 33 33 33 33 33 33 33 33 33 33 33 33 33 33 32 32 32 32 32 32 32 32 32 32 32 32 32 31 31 31 31 31 31 31 31 31 32 32 32 32 33
23 23 22 23 23 23 23 24 24 24 25 25 25 25 24 23 22 22 23 24 25 25 25 25 25 26 26 26 26 27 27 28 28 29 29 30 30 31 31 31 31 32 32 32 32 32 32 32 32 32 32 32 32 32 32 32 32 32 32 32 32 32 32 32 32 32 32 32 32 32 31 31 31 31 31 31 30 30 30 31 31 31 31 32 32 32
24 24 23 23 23 24 24 23 23 24 25 25 24 23 22 21 21 22 24 25 25 25 25 25 25 26 26 26 26 26 27 27 28 29 29 29 30 30 30 31 31 31 32 32 32 32 32 32 32 32 32 32 32 32 32 32 32 32 32 32 32 32 32 32 32 32 31 31 31 31 31 31 30 30 30 30 30 30 30 30 30 30 31 31 31 31
23 23 23 22 22 23 24 24 24 24 24 23 22 20 20 21 23 24 24 25 25 25 25 25 26 26 26 26 26 26 26 27 27 28 29 29 30 30 30 30 31 31 31 31 31 31 31 31 31 32 32 32 32 32 32 32 32 32 32 32 32 32 31 31 31 31 31 30 30 30 30 30 30 29 29 29 29 29 29 30 30 30 31 31 31 31
22 22 23 23 22 22 23 25 25 24 21 20 20 19 20 22 24 25 25 25 25 25 25 25 25 26 26 26 26 26 27 27 28 28 29 29 30 30 30 30 29 30 30 30 30 31 31 31 31 31 31 32 32 32 32 32 32 32 32 31 31 31 31 30 30 30 30 30 29 29 29 29 29 29 29 29 29 30 30 30 30 31 31 31 31 32
21 21 22 22 23 23 22 23 23 21 19 19 19 20 20 22 24 25 25 25 25 25 25 24 25 25 26 26 26 27 27 28 29 29 29 29 29 28 28 27 28 28 29 30 30 30 31 31 31 31 31 31 31 31 31 31 31 31 31 31 30 30 30 30 29 29 29 29 29 29 30 30 30 30 30 30 30 30 31 31 31 31 31 32 32 32
20 21 21 21 22 22 21 20 19 17 17 18 19 21 22 23 23 23 24 24 25 25 25 24 24 25 26 27 27 28 28 28 28 29 29 28 27 26 25 26 27 27 28 29 29 30 30 30 30 30 30 31 31 30 30 30 30 30 30 30 30 30 29 29 29 29 29 30 30 30 30 31 31 31 31 31 31 31 31 31 31 32 32 32 32 33
21 21 21 22 22 21 18 16 15 15 17 19 20 21 22 23 23 23 23 24 25 25 25 25 25 26 27 27 27 27 27 27 27 27 27 26 25 25 25 26 27 28 29 29 29 29 29 29 29 30 30 30 30 30 30 30 30 30 30 30 29 29 29 30 30 30 30 31 31 31 31 31 31 31 31 31 31 31 32 32 32 32 32 32 33 33
21 21 21 20 18 16 14 13 15 18 20 22 22 22 23 23 23 23 23 24 24 25 25 26 26 27 27 26 26 26 26 26 26 25 25 24 24 25 26 27 29 29 29 29 29 30 29 29 29 29 29 29 29 29 29 29 29 29 29 30 30 30 30 31 31 31 32 32 32 32 32 32 32 32 32 32 32 32 32 32 32 32 32 33 33 33
20 19 17 14 12 11 13 16 20 22 23 23 23 23 23 23 23 22 22 23 24 25 25 26 27 27 26 25 24 24 24 24 23 23 23 25 26 27 28 28 29 29 29 29 29 29 29 29 29 29 29 29 29 29 29 29 29 30 30 31 31 31 31 32 32 32 32 32 32 32 32 32 32 32 32 32 32 32 32 32 32 33 33 33 33 34
18 16 13 11 11 14 17 21 23 23 24 23 23 22 22 22 22 22 22 23 24 25 24 23 23 23 25 25 23 22 21 21 21 22 24 27 29 29 29 28 29 29 29 29 29 29 29 28 28 29 29 29 29 29 29 30 30 31 31 32 32 32 32 32 32 32 32 32 32 32 32 32 32 32 32 32 32 33 33 33 33 33 33 33 33 34
15 13 12 12 14 18 22 23 23 23 23 22 22 21 21 21 21 22 23 23 24 23 22 20 14 11 15 22 24 21 19 19 21 23 26 29 31 31 29 28 28 28 29 28 28 28 28 28 28 29 29 29 29 29 30 31 31 32 32 32 32 32 32 32 32 32 32 32 33 33 33 33 33 33 33 33 33 33 33 33 33 33 33 33 33 33
14 13 15 16 19 21 23 23 23 22 22 21 21 21 21 22 22 23 24 24 23 22 21 20 16 10 8 15 19 20 20 21 23 26 27 30 32 32 29 27 26 27 28 28 28 28 28 28 29 29 29 30 30 31 31 32 32 32 32 32 32 32 32 33 33 33 33 33 33 33 33 33 33 33 33 33 33 33 33 32 32 33 33 33 33 33
16 17 18 20 22 23 23 22 22 22 21 21 21 21 22 23 24 25 25 25 24 22 21 19 19 18 16 16 19 22 23 24 25 26 27 29 31 31 29 26 25 26 27 28 28 28 28 29 29 30 30 30 31 31 31 31 31 32 32 32 33 33 33 34 34 34 33 33 33 33 33 33 33 33 33 33 33 33 33 33 32 32 32 33 33 33
20 21 21 23 24 23 22 22 22 22 22 22 22 23 24 25 26 26 26 24 23 22 20 18 17 17 17 18 22 26 27 27 26 25 26 27 29 30 27 25 24 25 26 28 28 28 28 29 30 30 30 30 30 30 31 31 32 32 33 33 34 34 34 34 34 34 33 33 33 33 32 32 32 32 32 32 33 33 33 33 33 33 33 33 33 33
22 22 22 23 23 23 22 23 23 23 24 25 25 25 26 27 27 26 25 23 21 19 18 15 15 17 20 24 27 30 29 26 24 23 24 25 26 27 26 24 24 25 27 28 28 28 28 28 29 30 30 30 30 30 31 32 32 33 33 34 34 34 34 34 34 33 33 32 32 32 32 32 32 32 32 32 32 33 33 33 33 33 33 33 33 33
24 24 24 24 24 24 24 25 25 26 27 27 27 26 27 26 25 23 22 19 17 15 15 16 19 23 26 28 30 30 29 25 23 22 21 20 23 26 26 24 24 25 26 28 28 28 28 28 29 29 30 30 30 31 32 32 33 33 34 34 34 34 33 33 33 33 32 32 32 32 32 32 32 32 32 32 33 33 33 33 33 33 33 33 33 33
25 25 25 24 24 24 25 26 27 28 28 28 28 27 27 25 23 21 20 17 16 18 20 24 26 28 29 29 29 29 27 24 22 21 19 14 17 24 26 25 24 25 26 27 28 28 28 28 29 29 30 30 31 31 32 32 33 33 33 33 33 33 32 32 32 32 31 31 32 32 32 32 32 33 33 33 33 33 33 33 33 33 33 33 33 33
23 23 23 23 23 24 25 26 27 27 28 28 27 26 25 22 20 20 19 20 22 24 26 27 28 28 27 27 27 26 25 23 21 20 18 16 19 23 25 25 25 25 27 28 28 27 28 28 29 29 30 30 31 31 32 32 32 32 32 32 32 31 31 31 31 31 32 32 32 32 33 33 33 33 33 33 33 33 33 33 33 33 33 33 33 33
22 22 22 22 24 26 27 28 28 28 28 27 26 25 23 23 24 25 26 26 26 26 25 24 23 23 24 25 25 24 24 23 21 19 19 18 20 23 25 25 24 25 27 28 28 27 27 28 29 30 30 31 31 31 31 31 31 31 31 30 30 30 30 31 31 32 32 33 33 33 33 33 33 33 33 33 33 33 33 33 33 33 33 33 33 34
22 23 24 25 26 28 28 29 29 28 28 28 27 27 26 26 26 26 26 25 23 21 21 18 17 19 22 22 23 23 24 23 21 20 19 18 19 22 24 24 24 24 26 28 28 27 27 28 29 30 31 31 31 31 30 30 29 29 29 29 29 30 31 31 32 32 32 33 33 33 32 32 32 32 32 32 32 32 32 33 33 33 33 33 34 34
24 25 26 26 27 27 27 27 26 26 26 26 26 25 25 24 24 22 21 20 19 18 17 13 12 14 19 19 20 23 25 24 22 20 20 19 19 20 23 23 23 23 25 27 27 27 27 28 29 30 30 30 30 29 29 28 28 28 28 29 30 30 31 31 32 32 32 32 32 32 32 32 32 32 32 32 32 32 32 32 33 33 33 33 33 33
24 24 25 24 24 24 23 24 25 25 26 26 26 25 24 22 20 19 18 19 19 18 17 13 10 10 12 15 20 24 26 25 23 21 20 19 17 18 21 22 22 23 24 26 28 28 27 27 27 28 29 29 28 28 27 27 27 28 29 29 30 30 31 31 30 30 31 31 31 31 31 31 31 32 32 32 32 32 32 32 33 33 33 32 31 31
22 22 22 21 22 22 23 24 25 25 25 24 24 22 21 20 18 18 19 20 19 18 17 17 15 13 14 17 22 25 26 25 23 20 18 17 16 17 21 22 22 23 23 25 27 27 26 25 25 25 26 26 26 27 27 27 28 28 29 30 30 30 29 29 29 29 30 30 30 31 31 31 31 31 32 32 32 32 32 33 33 32 32 31 31 31
19 20 21 22 23 23 24 24 24 24 23 22 22 21 19 19 19 19 20 20 19 18 17 17 17 17 17 17 16 17 20 23 21 18 16 15 15 18 21 22 22 23 22 20 17 16 20 23 24 23 24 25 26 27 27 28 28 28 29 29 29 29 28 28 28 29 29 30 30 30 31 31 31 31 31 32 32 32 33 33 33 32 31 30 30 30
21 22 23 24 24 24 23 23 23 22 22 21 21 20 19 19 19 19 19 19 19 18 18 18 18 18 18 12 7 6 9 20 22 19 18 16 17 19 21 21 22 23 22 17 8 4 11 16 22 24 24 25 26 27 28 28 28 28 28 29 29 29 29 28 28 29 29 29 30 30 30 31 31 31 32 32 32 33 33 33 32 31 30 30 29 29
24 24 24 24 23 23 22 21 21 21 21 21 21 20 19 19 18 18 19 19 18 18 19 19 19 19 19 15 11 9 12 23 26 24 21 18 19 21 21 21 22 23 23 21 16 10 8 7 17 26 26 26 26 27 28 28 28 28 28 29 29 29 30 29 29 29 29 29 29 30 30 31 31 31 32 32 32 32 33 33 32 31 30 29 28 27
23 23 23 22 22 22 21 21 21 21 21 21 21 20 20 19 19 18 18 19 19 19 19 20 20 20 20 20 19 20 24 28 28 26 23 20 19 20 22 22 23 23 24 24 23 20 15 13 18 26 28 28 27 27 27 27 27 27 28 28 29 30 30 30 29 29 29 29 30 30 30 30 30 30 31 31 31 32 32 32 31 30 29 29 28 27
22 22 22 22 22 22 22 21 21 21 21 21 20 20 20 20 19 19 19 19 20 20 20 21 21 20 21 20 21 24 28 30 28 25 23 21 20 21 23 24 24 23 23 23 23 23 21 22 23 24 25 28 28 27 27 27 27 27 28 28 29 30 30 30 29 29 29 30 30 30 30 30 29 29 30 30 30 30 30 30 30 30 30 29 29 29
21 21 21 21 21 21 22 21 21 21 21 20 20 20 20 20 20 21 21 21 21 21 21 22 22 22 22 21 21 23 28 30 30 27 24 23 22 23 25 25 25 24 22 22 22 21 20 23 25 24 23 25 27 28 27 27 27 28 28 28 28 29 29 29 29 29 30 30 30 30 30 29 29 29 29 29 29 29 30 31 31 32 32 32 32 31
20 21 21 21 21 21 21 21 21 21 21 21 21 21 20 21 21 21 22 22 23 23 23 23 24 24 25 25 25 26 29 32 32 30 27 25 24 24 24 25 26 25 23 22 22 20 18 20 24 25 23 20 20 24 28 28 27 27 28 28 29 29 29 29 29 29 29 29 29 29 29 29 28 28 29 29 30 31 32 33 33 33 33 33 33 32
20 20 20 20 20 21 21 21 21 21 21 21 21 21 21 22 22 22 23 24 24 25 25 25 25 26 26 27 28 29 31 32 33 32 31 29 28 26 25 26 27 27 24 23 22 22 21 18 18 20 21 18 17 20 26 29 29 29 29 29 29 29 29 29 28 28 27 27 28 28 28 28 28 29 29 30 31 32 32 32 32 32 32 32 32 32
19 20 20 20 20 20 21 21 21 21 21 21 22 22 23 24 24 24 24 24 25 25 25 25 25 26 27 28 30 32 33 33 34 34 34 32 31 29 27 27 27 27 25 24 24 24 22 15 12 11 11 17 21 25 27 28 28 29 30 30 30 29 28 28 27 26 26 26 27 28 29 29 29 29 30 30 30 30 30 30 30 30 30 30 30 31
19 19 20 20 20 20 20 20 21 21 22 22 23 23 24 24 25 25 24 24 24 24 24 24 25 26 28 30 31 32 32 32 33 34 34 34 32 30 28 27 27 27 27 26 25 25 23 18 14 10 8 14 21 26 28 28 28 29 30 31 30 29 28 27 26 26 26 27 28 28 29 29 29 29 29 29 29 28 28 28 28 29 29 28 29 31
18 19 20 20 20 20 20 21 22 22 23 23 24 24 24 23 24 24 24 24 24 23 24 24 25 26 27 28 29 30 30 31 32 33 33 33 32 31 29 28 27 27 27 26 25 25 24 23 22 22 22 19 20 23 26 28 29 29 29 27 26 27 29 28 28 28 28 28 27 27 28 28 28 27 28 28 28 28 28 28 29 29 29 28 28 29
19 19 20 20 21 21 21 22 22 23 23 24 23 23 23 22 23 23 24 24 24 24 23 24 24 26 27 29 30 30 29 30 30 30 30 31 31 31 31 29 28 27 27 26 26 25 25 24 25 25 26 25 25 26 27 28 30 31 29 26 26 28 31 31 29 28 27 27 27 27 27 28 28 28 28 29 29 29 30 29 30 30 30 29 27 27
19 20 21 21 21 21 22 22 23 23 23 23 22 22 22 22 22 22 23 24 24 24 24 23 24 25 27 29 29 29 28 28 28 28 29 29 29 30 30 30 29 28 27 26 26 26 26 25 25 25 26 25 25 24 25 28 31 31 29 28 29 30 31 30 29 27 26 27 27 28 27 28 28 28 29 29 30 30 30 30 30 30 29 28 28 27
20 20 21 22 22 22 22 23 23 23 22 22 22 22 22 21 21 22 22 23 24 24 24 23 23 24 25 27 29 30 29 29 28 28 28 28 28 28 29 29 29 29 28 26 25 25 26 26 26 25 26 26 26 25 25 28 30 31 31 30 29 25 21 25 28 29 28 28 28 28 28 28 28 29 29 29 29 30 30 30 30 29 29 29 29 29
20 21 21 22 22 22 22 22 22 22 22 22 23 23 23 22 22 21 22 22 23 23 23 23 23 23 23 24 26 28 29 29 29 28 27 27 27 26 27 28 28 28 28 26 25 25 25 26 26 27 28 27 26 25 25 27 28 29 30 30 29 25 22 24 28 30 29 29 29 29 29 28 29 29 29 28 29 29 29 28 29 29 29 29 29 30
20 21 21 21 21 21 21 22 22 22 22 23 23 23 23 22 21 21 21 22 22 23 23 23 22 21 21 22 24 26 27 29 29 29 28 27 26 25 25 26 27 27 27 26 26 25 24 25 26 28 28 28 27 26 26 26 27 28 30 30 29 28 29 30 30 29 28 29 29 29 29 28 28 28 27 27 27 27 26 26 27 27 28 28 29 30
20 20 21 21 21 22 22 22 22 23 23 23 23 23 23 23 22 21 21 22 22 22 23 22 21 19 19 21 23 24 25 26 28 29 28 28 28 27 26 26 26 26 26 27 27 27 26 26 27 28 28 28 27 28 28 27 27 26 27 28 28 28 28 29 29 29 28 28 29 29 29 28 27 25 25 26 28 28 28 28 28 28 28 28 29 31
20 20 21 21 22 22 22 22 22 22 23 23 24 24 23 23 22 22 22 22 21 22 22 22 21 20 20 21 22 22 22 24 26 27 28 28 28 28 27 26 26 26 27 27 28 28 29 29 30 29 28 26 25 26 28 29 28 26 26 27 27 26 26 27 28 29 28 27 27 28 28 27 27 27 26 27 28 29 30 29 29 28 28 29 29 31
20 21 21 21 22 22 22 22 22 22 23 23 24 24 24 23 22 22 22 22 22 22 22 21 21 20 21 22 22 22 22 23 24 26 27 27 27 27 27 27 27 27 27 27 28 29 29 31 31 31 30 27 24 24 26 28 28 27 26 26 26 25 25 26 28 28 27 26 27 27 27 26 25 25 25 26 27 28 30 30 30 29 28 28 29 30
20 21 21 21 21 21 22 22 22 22 23 24 24 25 25 25 23 22 22 22 22 21 21 20 20 20 21 21 23 24 24 24 24 25 25 26 26 26 26 26 27 27 28 28 28 28 29 29 30 30 29 28 27 26 26 27 27 27 26 26 25 24 24 25 26 27 26 26 27 27 27 26 25 24 24 24 25 27 29 31 31 30 28 28 28 28
21 21 21 21 21 21 22 22 23 23 23 23 24 24 25 25 25 24 23 22 22 21 21 20 20 20 20 22 23 24 24 24 24 24 25 26 26 25 25 26 26 26 26 26 26 26 26 25 25 25 25 25 25 26 25 25 25 26 25 25 24 24 24 25 26 27 27 27 27 27 27 27 26 25 24 23 24 26 28 29 30 29 27 26 26 27
21 21 21 21 21 21 22 22 23 23 23 23 23 24 24 24 24 24 24 23 22 22 21 21 21 21 21 22 23 23 24 23 23 23 25 26 26 25 24 25 25 25 23 21 20 19 16 15 16 18 19 20 20 20 22 22 23 23 23 24 25 25 24 25 26 27 27 27 27 27 26 26 26 25 23 22 21 21 22 25 28 29 28 26 25 26
Wind_Direction
300 303 306 308 310 309 308 308 308 308 307 306 305 304 303 302 301 300 300 299 298 298 297 297 297 297 298 298 298 298 298 298 298 298 298 298 298 298 298 298 299 299 300 300 300 300 300 299 299 298 298 297 297 296 296 295 294 294 293 292 291 290 290 289 289 288 288 287 287 287 286 286 286 285 284 283 283 282 281 280 279 278 277 275 275 274
302 303 305 307 308 308 306 306 306 306 305 304 303 302 302 301 300 300 299 298 297 297 297 297 297 297 297 297 297 297 297 297 297 297 297 298 298 298 299 299 300 300 301 301 301 300 300 299 299 298 298 297 297 296 296 295 294 293 292 292 291 290 290 290 289 289 289 289 288 288 287 287 286 286 285 284 283 282 281 280 279 278 276 275 274 273
304 305 305 307 307 306 305 305 305 304 302 302 301 301 300 299 299 299 298 297 296 296 296 297 297 297 296 296 296 296 296 297 297 297 298 298 299 299 300 300 301 301 301 301 300 300 299 299 299 298 298 297 296 296 295 295 294 293 292 292 291 291 290 290 290 290 289 289 288 288 288 287 287 286 285 284 283 282 281 280 279 278 277 275 275 274
304 305 306 307 306 304 303 304 304 303 301 300 299 299 299 298 297 297 296 296 296 295 296 296 296 296 295 295 295 295 296 297 298 298 299 299 299 300 301 301 301 301 301 300 300 299 299 299 298 298 297 297 296 296 295 294 293 293 292 292 291 291 291 291 290 290 290 289 289 289 288 288 288 287 286 286 285 284 283 281 281 280 279 278 278 277
303 304 305 306 305 304 303 302 302 302 301 299 299 298 298 297 296 296 295 295 295 295 295 296 295 295 295 295 296 296 298 298 299 299 299 299 300 300 300 300 300 300 299 299 299 298 298 298 298 297 297 296 296 295 295 294 294 293 293 293 292 292 292 292 292 291 291 291 290 290 289 289 288 288 287 286 286 285 284 283 282 281 280 280 279 278
302 303 304 304 303 302 302 301 301 301 300 299 298 298 297 296 296 295 295 295 295 295 296 296 296 296 296 296 297 298 299 299 300 299 299 299 299 299 299 299 299 299 298 298 298 298 298 298 297 297 297 297 296 296 296 295 295 295 295 294 294 294 294 294 294 293 293 292 291 291 290 289 289 288 287 286 286 285 284 283 282 281 280 279 278 277
301 301 302 301 300 299 299 299 299 299 299 299 299 298 296 295 295 295 295 296 296 296 296 297 297 298 298 298 299 300 300 300 300 299 299 298 298 298 298 298 298 298 298 298 298 298 298 298 298 298 297 297 297 297 297 297 297 297 296 296 296 296 296 295 295 294 293 292 292 291 290 290 289 288 288 287 286 286 284 283 282 281 280 279 278 277
300 300 300 299 298 298 297 296 297 297 296 296 297 297 297 296 296 296 296 297 297 298 298 299 300 300 300 300 300 300 300 300 300 299 299 298 298 298 298 298 298 298 298 298 298 298 298 298 298 298 298 298 298 298 298 298 297 297 297 297 297 296 296 295 294 293 293 292 291 291 290 290 289 289 288 287 287 286 285 284 283 281 281 280 279 278
297 298 298 296 296 297 297 297 296 294 293 293 294 296 298 298 299 299 299 300 301 301 302 302 302 301 300 300 300 301 300 300 299 298 298 298 298 298 297 298 298 298 298 298 298 298 298 298 298 298 298 298 298 298 298 297 297 297 297 296 296 296 295 294 293 292 292 291 291 290 290 289 289 288 287 287 286 285 284 283 282 281 280 279 279 278
294 294 295 294 293 292 291 293 294 293 290 290 290 293 296 299 302 304 304 303 303 304 303 303 302 302 301 301 301 301 301 300 298 297 296 296 296 296 296 297 297 298 298 298 298 298 298 298 297 297 297 297 297 297 297 297 296 296 296 296 295 295 294 293 292 292 291 290 290 289 289 288 288 287 286 285 284 284 283 282 281 280 279 278 277 277
293 293 292 292 292 289 284 285 288 290 290 292 293 295 297 300 303 305 306 305 305 304 303 302 302 302 302 303 302 302 301 300 299 297 296 295 295 295 296 296 297 298 298 299 298 298 297 297 297 296 296 296 296 296 296 296 296 295 295 295 294 294 293 292 291 291 290 289 289 289 288 288 287 286 286 285 284 283 282 281 280 279 278 278 277 276
292 292 291 290 289 288 284 282 283 288 295 300 302 303 303 303 304 304 304 304 305 304 304 303 302 301 301 301 302 301 300 299 298 297 297 297 297 297 298 299 299 299 300 299 298 297 296 296 296 296 296 296 295 295 295 295 295 294 294 294 294 293 292 291 291 290 290 289 289 289 288 288 287 287 286 285 284 282 282 281 280 279 278 277 277 276
289 289 286 285 285 283 282 284 289 297 303 306 306 305 305 305 304 303 301 301 302 303 304 304 302 300 299 299 299 299 298 297 296 296 297 297 298 299 301 302 302 301 301 300 298 297 296 296 296 295 295 295 294 294 294 294 294 294 294 293 293 292 292 291 291 290 290 290 290 289 289 288 287 287 286 284 284 282 281 280 280 279 278 277 276 276
287 285 282 279 278 277 280 291 300 305 306 305 304 302 302 304 304 303 301 300 300 302 303 302 300 299 298 297 297 296 296 296 296 296 296 297 299 301 303 303 302 301 300 299 298 296 296 296 296 295 294 294 294 294 294 294 294 294 294 293 293 292 292 292 292 291 291 291 290 290 289 288 288 287 286 285 284 283 282 281 280 279 278 277 276 276
285 282 279 275 275 282 295 304 306 305 303 302 302 301 302 302 303 302 302 301 301 302 302 300 298 297 297 297 297 297 296 296 296 298 299 299 300 301 303 303 301 300 299 298 297 296 296 296 295 294 294 294 294 293 294 294 294 294 294 294 294 293 293 293 292 292 291 291 290 290 289 289 288 288 287 287 286 285 284 282 281 280 279 278 277 276
282 279 277 281 290 299 305 306 305 302 301 301 301 301 302 301 302 302 301 300 301 301 301 299 298 298 298 298 298 299 298 299 300 302 303 302 301 302 303 302 301 299 298 297 295 295 296 295 295 294 294 294 294 294 294 294 295 295 294 294 294 294 293 293 293 292 292 292 291 291 291 290 289 289 288 287 286 285 284 283 281 280 279 278 277 276
283 284 290 299 304 306 306 304 301 300 299 300 301 300 300 300 300 300 299 298 298 297 296 296 296 298 298 300 300 301 303 306 307 306 305 302 301 301 302 301 299 297 296 295 294 294 295 295 295 294 294 294 294 295 295 295 295 295 295 295 295 295 294 294 294 294 293 293 293 292 292 291 290 289 289 288 287 286 284 283 282 281 280 279 278 277
295 300 305 306 305 304 303 302 300 299 299 300 301 300 300 299 298 297 296 294 293 291 291 290 291 291 293 297 300 303 308 312 311 308 304 301 300 300 301 299 297 295 294 294 293 294 294 294 294 294 294 294 295 295 296 296 296 296 295 295 296 296 295 295 295 295 294 294 293 292 292 291 290 290 289 288 287 287 285 284 283 282 281 280 279 277
305 306 306 304 301 300 299 298 298 299 300 301 302 302 301 299 296 294 292 290 288 287 286 286 287 288 288 291 297 303 309 312 310 306 302 299 298 299 300 299 296 293 293 293 293 294 294 294 294 294 294 294 295 295 296 296 296 296 296 296 297 296 296 296 295 295 295 294 293 293 292 291 291 290 290 289 288 287 286 285 284 283 282 281 280 278
303 301 299 298 298 298 297 296 297 298 300 301 301 300 298 296 294 291 289 286 285 285 283 282 284 287 293 297 301 304 308 309 307 303 299 297 296 297 298 298 296 294 293 292 293 294 295 295 295 295 295 295 295 295 296 296 297 297 297 297 297 297 296 296 296 295 295 294 294 293 292 292 291 290 289 288 288 287 287 286 286 285 283 282 281 280
298 297 295 296 296 297 296 296 296 297 298 298 297 295 293 291 289 287 286 286 285 284 285 285 289 296 301 302 302 303 305 306 304 300 297 295 294 294 296 297 296 294 293 292 294 295 296 296 295 296 296 296 296 296 296 297 297 297 297 297 297 297 297 296 296 296 295 294 294 293 292 291 290 289 289 288 288 288 287 287 286 286 285 284 283 281
294 294 294 294 294 293 293 293 294 294 294 293 290 288 286 285 283 283 285 286 287 289 293 297 300 301 301 300 299 300 301 302 299 296 294 292 291 292 296 297 296 294 293 293 295 296 297 296 296 296 296 296 296 296 297 297 297 297 297 297 297 297 297 296 296 295 295 294 294 293 292 292 291 291 290 290 290 289 288 288 287 286 285 284 283 282
291 291 292 292 291 290 290 290 291 291 290 288 284 281 279 277 278 281 286 291 297 301 303 303 302 300 299 298 297 298 299 298 296 294 292 289 289 292 296 298 297 294 293 294 296 298 298 297 296 296 296 296 296 296 296 297 297 297 297 297 297 297 296 296 296 296 295 295 295 294 294 294 293 293 292 292 291 290 289 288 287 286 285 284 283 282
290 290 291 291 291 291 291 291 291 290 289 288 286 284 285 287 292 298 303 305 306 306 304 303 302 301 299 298 298 298 298 298 297 295 292 288 288 292 295 297 297 295 294 294 296 298 298 297 296 296 296 296 296 296 296 296 296 297 297 297 296 296 296 296 296 296 296 296 296 296 295 295 294 293 293 292 291 290 289 289 288 287 286 285 284 283
292 292 292 292 293 294 294 293 293 293 294 297 300 305 309 311 310 309 307 306 305 304 304 303 301 300 299 301 300 298 298 298 298 295 290 288 288 291 293 295 295 294 294 295 297 298 298 297 297 297 297 296 296 296 296 296 296 296 296 297 296 296 297 297 297 297 297 297 296 296 295 294 294 293 292 291 291 290 290 289 288 287 286 286 285 284
293 293 293 293 294 294 294 294 295 298 301 305 310 312 313 313 311 308 305 303 303 304 304 301 298 297 299 300 299 298 298 299 298 294 290 289 289 291 292 294 294 294 294 296 298 299 298 298 297 297 297 296 296 296 295 295 296 296 297 297 297 297 297 297 297 297 297 296 296 295 295 294 294 293 292 291 291 290 290 289 288 288 287 287 286 285
293 293 293 293 294 295 296 298 301 303 306 307 308 308 309 309 308 305 302 302 303 304 302 299 296 297 299 298 297 297 298 299 298 295 291 289 288 288 290 293 294 294 295 297 298 298 298 297 296 296 296 295 295 296 296 296 296 297 297 297 297 297 297 297 296 296 296 296 296 295 295 294 294 293 292 292 291 291 290 290 289 289 289 288 287 286
294 294 295 296 297 300 302 304 305 305 306 305 304 304 305 305 303 300 297 299 301 300 296 293 292 294 296 296 296 297 297 297 296 295 293 290 286 285 289 294 296 297 297 298 298 298 296 294 294 294 294 295 296 297 297 298 298 298 298 297 297 297 297 296 297 297 296 296 295 295 295 294 294 293 292 292 292 291 291 291 290 290 290 289 288 286
297 299 301 303 304 305 307 306 305 304 304 303 303 303 303 301 297 294 294 296 297 294 290 288 288 289 291 293 296 296 296 294 294 296 297 293 288 286 291 296 298 298 299 300 300 300 297 295 294 294 295 296 298 299 299 299 299 298 298 298 298 297 297 297 297 297 297 296 296 296 295 294 294 293 293 292 292 291 291 291 291 291 290 289 287 285
308 310 310 309 308 308 307 306 305 304 304 303 303 302 300 297 293 290 290 291 289 287 286 286 286 287 290 293 296 296 294 293 295 300 305 301 294 292 295 297 298 298 300 302 302 301 299 298 298 297 297 298 299 299 299 300 299 299 298 298 298 297 297 297 298 298 297 297 296 296 295 295 294 294 293 292 292 291 290 290 290 290 289 288 286 283
315 314 312 310 309 308 307 306 305 304 304 303 302 301 298 295 290 288 287 286 285 283 283 284 285 286 288 291 293 292 291 293 296 302 307 302 295 293 296 296 297 297 299 300 300 301 302 302 302 302 301 300 300 300 299 299 299 299 299 299 298 297 297 298 299 299 298 298 297 296 295 295 294 293 293 292 291 290 290 290 290 289 288 287 284 282
314 312 310 309 309 309 308 307 306 305 304 303 302 300 298 294 291 289 287 287 285 283 283 284 284 285 285 284 281 280 283 289 294 299 302 298 293 292 295 295 295 296 297 295 293 291 298 301 303 303 303 301 300 299 299 299 299 298 299 299 298 297 298 300 300 299 299 298 298 297 296 295 294 293 292 291 290 290 289 289 289 288 287 285 283 281
311 310 309 309 309 308 307 306 305 304 303 302 302 300 298 296 293 291 290 289 287 286 285 284 285 285 284 282 280 279 282 285 290 295 298 296 294 293 295 294 294 295 296 294 291 289 287 289 297 300 301 301 300 299 299 299 298 298 298 298 297 297 299 300 300 299 299 298 298 297 296 294 293 292 292 291 290 290 289 289 288 287 285 284 282 281
310 309 309 309 309 308 307 306 305 304 303 302 301 300 299 297 295 294 292 290 289 287 285 284 284 284 284 284 283 282 283 285 288 293 296 296 294 292 294 294 294 294 295 294 293 291 289 289 293 297 300 300 299 299 298 298 298 298 297 297 296 297 298 299 299 298 298 297 297 295 295 294 293 292 291 291 290 289 289 288 288 287 285 284 283 282
310 310 310 310 310 309 308 307 306 305 303 302 301 301 300 299 297 296 294 292 290 288 285 283 281 281 281 282 282 283 284 286 289 293 294 293 291 290 291 292 293 293 293 293 293 293 291 291 292 294 297 299 299 299 298 298 299 298 298 297 296 296 296 297 297 297 296 296 295 294 294 293 292 292 291 290 289 289 289 289 288 287 286 284 283 282
310 311 311 311 311 310 309 308 307 305 304 303 302 302 301 300 299 297 295 293 291 289 286 283 281 279 278 277 277 278 281 285 289 291 292 289 287 286 287 288 290 291 290 290 290 291 291 291 292 293 294 296 298 299 299 300 300 299 298 297 296 296 295 295 295 294 294 294 293 293 293 292 292 291 291 291 290 290 289 289 288 287 285 284 283 281
310 310 311 311 310 310 308 307 307 306 305 304 304 304 303 302 300 298 296 294 292 290 288 285 283 280 278 276 275 276 278 282 286 288 288 287 285 284 283 285 287 288 287 287 288 289 290 291 292 293 293 292 294 297 300 302 302 300 298 297 297 296 295 294 293 293 292 291 290 291 291 292 292 291 291 291 291 290 289 288 287 286 285 284 283 281
309 309 309 310 310 309 308 307 306 306 306 306 305 305 304 302 301 299 297 295 293 291 290 288 286 284 283 281 279 279 280 282 284 285 287 287 286 284 283 284 285 285 284 283 284 286 288 289 291 291 289 291 292 294 296 299 300 299 298 298 297 296 295 294 293 292 291 290 290 290 291 291 290 290 290 290 290 289 287 286 285 284 285 284 284 283
307 307 308 309 309 308 307 306 306 306 306 305 305 304 303 302 301 300 298 296 295 293 292 290 288 287 287 286 284 283 283 283 284 286 287 287 286 285 284 284 284 285 284 283 282 283 284 284 284 285 288 292 293 294 295 296 296 297 298 299 298 296 295 294 294 293 292 291 290 290 289 289 289 288 288 288 288 286 285 284 284 284 285 284 285 286
307 306 307 307 307 306 305 305 305 305 305 305 304 303 303 302 302 302 300 299 297 296 294 293 291 290 289 288 287 287 286 286 287 287 287 287 287 285 283 283 283 284 284 283 282 280 280 280 281 283 285 287 290 292 293 293 293 295 297 298 297 296 296 296 295 293 292 290 288 288 288 289 288 287 286 285 284 283 283 282 283 283 283 282 283 284
307 306 306 306 306 305 304 304 304 304 304 304 304 304 304 304 304 304 303 302 301 299 298 297 296 295 294 293 292 291 290 290 290 289 289 289 288 287 285 283 282 282 283 283 281 280 279 278 279 281 283 283 285 288 289 289 291 293 294 293 292 293 294 294 293 292 291 289 288 288 288 289 288 287 285 284 282 280 280 279 279 280 280 279 278 278
306 305 305 305 305 304 304 303 303 304 304 304 303 303 303 303 303 303 303 303 302 301 301 300 299 298 298 298 297 296 296 294 293 292 292 292 291 290 288 285 283 282 281 281 280 279 278 278 278 279 280 282 283 286 288 288 290 291 290 289 290 292 294 293 293 292 291 290 290 289 288 288 287 286 284 284 282 281 280 278 278 277 277 277 276 275
304 303 303 304 303 303 303 304 304 305 305 305 303 302 302 301 301 300 300 299 299 300 301 300 299 298 297 298 300 300 300 299 297 296 295 295 294 293 291 288 286 284 281 279 279 280 280 279 278 278 279 281 282 283 285 287 288 289 288 288 288 290 292 292 293 294 293 291 290 288 288 287 286 285 284 283 282 282 281 279 278 276 275 275 275 275
302 301 301 302 303 304 305 305 305 306 305 304 302 301 301 301 300 299 298 297 296 297 298 298 298 296 295 295 298 300 302 302 302 302 300 298 297 296 294 291 289 286 283 279 279 280 282 282 281 281 281 281 280 280 281 283 285 286 287 286 286 285 284 287 290 292 292 291 289 288 287 286 286 286 285 283 282 282 281 280 279 278 277 277 277 276
301 302 302 304 305 305 305 305 305 305 304 303 301 300 301 301 300 299 298 296 296 296 296 297 297 296 295 295 297 299 302 303 304 305 304 303 302 300 297 294 290 287 284 281 278 277 279 281 282 283 283 282 280 278 278 280 282 283 284 284 284 283 282 284 286 288 289 289 288 288 287 287 286 286 286 285 285 284 283 282 282 281 281 280 278 277
302 303 304 305 305 305 304 304 305 304 304 302 301 300 301 301 301 299 298 296 295 295 296 296 295 293 293 295 297 299 300 302 304 305 306 306 305 303 300 297 293 290 287 284 281 279 277 277 279 282 283 283 281 279 278 278 279 281 282 284 284 284 284 284 285 286 286 286 287 288 289 289 289 288 288 288 289 288 287 285 284 282 282 281 280 278
305 305 305 305 305 305 304 305 305 304 304 302 302 301 301 302 301 301 299 298 296 295 296 296 294 291 290 292 294 296 297 299 301 303 304 305 305 305 303 300 297 294 290 287 284 282 279 277 276 277 278 279 280 280 279 278 278 279 281 283 284 285 285 285 285 285 285 285 285 287 290 292 293 292 291 291 290 290 289 287 285 283 282 281 280 279
307 306 306 306 305 305 305 305 305 304 303 302 302 302 303 303 303 302 300 299 298 297 296 296 294 292 291 291 293 294 295 296 298 299 301 302 303 304 303 302 300 297 294 290 287 284 281 279 276 274 272 272 274 276 278 278 278 278 279 282 283 284 283 284 285 286 287 286 286 288 290 292 292 292 292 292 291 291 290 289 288 286 284 282 280 278
307 306 306 306 305 305 305 305 305 304 303 302 302 303 303 304 304 302 300 300 298 296 295 294 293 292 292 293 294 295 296 296 297 298 299 300 302 303 303 302 302 300 298 295 293 290 287 283 279 275 270 267 267 269 273 276 278 279 280 281 282 283 283 285 287 289 290 290 290 291 291 291 290 289 289 290 290 290 290 290 290 288 286 283 280 278
307 306 306 305 305 304 304 304 304 303 302 302 302 302 303 304 304 303 301 300 298 295 293 292 291 292 293 293 294 295 297 297 297 298 299 301 302 303 303 303 302 302 301 300 299 297 295 292 288 284 278 270 265 265 269 274 279 282 284 284 284 285 286 287 289 291 292 293 293 293 292 291 290 288 286 286 286 288 289 289 290 289 287 284 282 280
307 306 306 305 304 303 303 303 302 302 301 301 301 302 302 303 303 303 303 301 299 296 294 293 291 291 292 293 294 295 297 297 297 297 299 301 302 302 302 302 302 302 301 301 301 301 300 297 296 294 291 285 278 272 273 278 283 287 288 288 288 288 289 289 291 292 293 293 294 293 292 291 289 288 285 283 283 285 288 289 290 290 290 288 286 284